Location: Chmeln�
(49.6483°N, 14.9871°E)
Time: 08:39:15
(UTC+00:00)

OBJECT-B - Pass Details

Date: 18 September 2020
Orbit: 421 x 433 km, 97.0° (Epoch: 09 October)

Event Time Altitude Azimuth Distance (km) Brightness Sun altitude
Exits shadow 19:01:25 65° 154° (SSE) 470 0.7 -18.8°
Maximum altitude 19:01:50 85° 77° (ENE) 432 0.6 -18.9°
Drops below altitude 10° 19:05:06 10° 349° (NNW) 1,524 4.1 -19.3°
Sets 19:07:07 0° 348° (NNW) 2,397 5.2 -19.6°
